This demonstration page uses our WeatherBlox Daily Observations layout. Learn more.

Left ArrowRight Arrow

44.89941, -97.11507

Hourly Observations for October 31, 2019

Temp ( °F °C ) Dew Point ( °F °C ) Humidity (%) Winds ( mph kmh ) Pressure ( in mb ) Visibility ( mi km ) Precip ( " mm )
12:53 am 00:53 Clear 21 -6.1 15 -9.4 78 78 W 5 7 30.22 1024 10 16 0.00 0.00
1:53 am 01:53 Clear 19 -7.2 15 -9.4 84 84 Calm 30.22 1023 10 16 0.00 0.00
2:53 am 02:53 Clear 18 -7.8 14 -10 84 84 Calm 30.21 1023 10 16 0.00 0.00
3:53 am 03:53 Clear 17 -8.3 14 -10 88 88 Calm 30.20 1023 10 16 0.00 0.00
4:53 am 04:53 Clear 16 -8.9 14 -10 92 92 Calm 30.19 1022 10 16 0.00 0.00
5:53 am 05:53 Clear 16 -8.9 14 -10 92 92 Calm 30.19 1022 10 16 0.00 0.00
6:53 am 06:53 Clear 16 -8.9 13 -10.6 88 88 S 3 6 30.18 1022 10 16 0.00 0.00
7:53 am 07:53 Clear 18 -7.8 14 -10 84 84 SSW 3 6 30.17 1022 10 16 0.00 0.00
8:53 am 08:53 Sunny 18 -7.8 15 -9.4 88 88 SSW 5 7 30.17 1022 10 16 0.00 0.00
9:53 am 09:53 Sunny 25 -3.9 18 -7.8 75 75 WSW 9 15 30.16 1021 10 16 0.00 0.00
10:53 am 10:53 Sunny 30 -1.1 16 -8.9 56 56 SW 10 17 30.14 1021 10 16 0.00 0.00
11:53 am 11:53 Sunny 32 0 13 -10.6 45 45 WSW 13 20 30.13 1020 10 16 0.00 0.00
12:53 pm 12:53 Sunny 36 2.2 10 -12.2 34 34 WSW 15 24 30.09 1019 10 16 0.00 0.00
1:53 pm 13:53 Sunny 37 2.8 11 -11.7 34 34 WSW 16 26 30.06 1018 10 16 0.00 0.00
2:53 pm 14:53 Sunny 37 2.8 11 -11.7 34 34 WSW 16 26 30.04 1017 10 16 0.00 0.00
3:53 pm 15:53 Sunny 37 2.8 15 -9.4 41 41 WSW 18 30 30.03 1017 10 16 0.00 0.00
4:53 pm 16:53 Mostly Sunny 38 3.3 13 -10.6 36 36 SW 13 20 30.01 1016 10 16 0.00 0.00
5:53 pm 17:53 Mostly Cloudy 35 1.7 15 -9.4 44 44 SW 12 19 30.01 1016 10 16 0.00 0.00
6:53 pm 18:53 Cloudy 36 2.2 17 -8.3 46 46 SSW 10 17 30.00 1016 10 16 0.00 0.00
7:53 pm 19:53 Cloudy 36 2.2 17 -8.3 46 46 SSW 9 15 30.01 1016 10 16 0.00 0.00
8:53 pm 20:53 Cloudy 36 2.2 18 -7.8 48 48 SSW 8 13 29.99 1016 10 16 0.00 0.00
9:53 pm 21:53 Cloudy 37 2.8 18 -7.8 46 46 WSW 10 17 29.97 1015 10 16 0.00 0.00
10:53 pm 22:53 Cloudy 37 2.8 20 -6.7 50 50 W 10 17 29.98 1015 10 16 0.00 0.00
11:53 pm 23:53 Cloudy 35 1.7 26 -3.3 70 70 WNW 9 15 29.98 1015 10 16 0.00 0.00

Powered by AerisWeather